Regional Weather Roundup
Issued by NWS Green Bay, WI

Home | Current Version | Previous Version | Graphics & Text | Print | Product List | Glossary On
Versions: 1 2 3 4 5 6 7 8 9 10 11 12 13 14 15 16 17 18 19 20 21 22 23 24 25 26 27 28 29 30 31 32 33 34 35 36 37 38 39 40 41 42 43 44 45 46 47 48 49 50
000
ASUS43 KGRB 220900
RWRGRB

NORTH-CENTRAL AND NORTHEAST WISCONSIN REGIONAL WEATHER ROUNDUP
NATIONAL WEATHER SERVICE GREEN BAY WI
300 AM CST MON JAN 22 2018

WIZ005-009-010>012-018-019-221000-
NORTH CENTRAL WISCONSIN

CITY           SKY/WX    TMP DP  RH WIND       PRES   REMARKS
IRONWOOD       CLOUDY    28  27  96 NE6       30.01S
MANITOWISH WTR NOT AVBL
ARBOR VITAE    NOT AVBL
EAGLE RIVER    CLOUDY    31  31  99 NE14      29.94F
LAND O LAKES   NOT AVBL
RHINELANDER    CLOUDY    32  30  92 NE8       29.93S
PHILLIPS       CLOUDY    31  31  99 NE12G17   29.92F
ANTIGO         NOT AVBL
TOMAHAWK       NOT AVBL
MERRILL        CLOUDY    34  31  88 E9        29.91F
$$

WIZ013-073-221000-
NORTHEAST WISCONSIN

CITY           SKY/WX    TMP DP  RH WIND       PRES   REMARKS
IRON MOUNTAIN  CLOUDY    31  28  89 N7        29.96F
MARINETTE      CLOUDY    34  32  92 NE14      29.97F
$$

WIZ017-030-035>037-045-221000-
CENTRAL WISCONSIN

CITY           SKY/WX    TMP DP  RH WIND       PRES   REMARKS
MEDFORD        NOT AVBL
WAUSAU         CLOUDY    34  30  85 E12       29.87F
MOSINEE        NOT AVBL
MARSHFIELD     CLOUDY    35  31  85 NE16G23   29.83F
WISC RAPIDS    LGT RAIN  35  30  82 E13       29.86F
STEVENS POINT  NOT AVBL
WAUPACA        NOT AVBL
SHAWANO        CLOUDY    35  32  90 NE12      29.93S FOG
CLINTONVILLE   NOT AVBL
WAUTOMA        CLOUDY    34  33  96 NE14      29.84F FOG
$$

WIZ038-039-048-051-221000-
FOX VALLEY

CITY           SKY/WX    TMP DP  RH WIND       PRES   REMARKS
NWS GREEN BAY  FOG       33  32  96 NE21      29.92S VSB 1/2
APPLETON       NOT AVBL
OSHKOSH        LGT RAIN  33  33 100 NE17G25   29.85F VSB 1
FOND DU LAC    RAIN      36  33  89 NE13      29.84F FOG
$$

WIZ022-050-052-221000-
EAST CENTRAL WISCONSIN

CITY           SKY/WX    TMP DP  RH WIND       PRES   REMARKS
EPHRAIM        NOT AVBL
WASHINGTON ISL NOT AVBL
STURGEON BAY   CLOUDY    34  33  96 NE12      29.94F FOG
MANITOWOC      MIX PCPN  36  35  96 NE12      29.89F FOG
SHEBOYGAN      LGT RAIN  36  36 100 NE16      29.84F FOG
$$

LMZ563-521-522-541>543-221000-
LAKESHORE

STATION/POSITION TIME  TEMP    WIND        PRES    VSBY  WAVE
                       AIR SEA DIR/SP/G                  HT/PER
                 (UTC) (F)     (DEG/KT/KT) (MB)    (MI)  (FT/S)
SHEBOYGAN LKSHOR 0800   36      40/ 15/ 16 1011.7F
KEWAUNEE LKSHORE 0830   35      30/ 12/ 19 1012.2F
NORTHPORT PIER   0840   33      CALM  /  2 1014.9F
SISTER BAY LKSHO 0820   33      40/  8/ 10   N/A
MENOMINEE LKSHOR 0830   33      20/ 20/ 22 1014.2F
$$



USA.gov is the U.S. government's official web portal to all federal, state and local government web resources and services.